User: anonymous   Login
Location: Cincinnati Observatory Center
(39.1389°N, 84.4225°W)
Time: 20:55:51
(UTC-04:00)
Language:

COSMOS 2428 - Orbit

View from above orbital plane
View from above orbital plane
View from above satellite
View from above satellite

Ground track
Ground track

The orbit data is extracted from the following two-line orbital elements,

1 31792U 07029A   17084.90822937 -.00000060 +00000-0 -66413-5 0  9993
2 31792 070.9128 226.9635 0005465 027.7442 332.3969 14.12253996502228
Epoch (UTC): 25 March 2017 21:47:51
Eccentricity: 0.0005465
inclination: 70.9128°
perigee height: 848 km
apogee height: 855 km
right ascension of ascending node: 226.9635°
argument of perigee: 27.7442°
revolutions per day: 14.12253996
mean anomaly at epoch: 332.3969°
orbit number at epoch: 50222

The dashed part of the orbit path shows where the satellite is in the earth's shadow,  

DLR